Location: Berville
(49.1893°N, 2.0748°E)
Time: 20:05:49
(UTC+00:00)

FENGYUN 1C DEB - Pass Details

Date: 06 March 2024
Orbit: 768 x 960 km, 99.0° (Epoch: 13 April)

Event Time Altitude Azimuth Distance (km) Brightness Sun altitude
Exits shadow 22:54:50 11° 285° (WNW) 2,610 ? -43.7°
Drops below altitude 10° 22:55:38 10° 293° (WNW) 2,666 ? -43.8°
Sets 23:00:21 0° 327° (NNW) 3,578 ? -44.0°
